Home > Time Zones > World Clock > Weather > Chile > Talca > Past weeks

Flag for Chile Weather past 2 weeks in Talca, Chile

Now
57 °F

Clear.


Feels Like: 55 °F
Forecast: 44 / 87 °F
Wind: 8 mph from Southwest

Location: Concepcion Airport

Current Time: Dec 22, 2014 at 11:30:34 PM

Latest Report: Dec 22, 2014 at 11:00 PM


Visibility: 10 mi

Pressure: 30.12 "Hg

Humidity: 63%

Dew point: 45 °F

Location of TalcaLocation

Historic Weather in Talca — Graph

°F

Talca temperature yesterday

Maximum temperature yesterday: 66 °F (at 2:00 PM)
Minimum temperature yesterday: 45 °F (at 7:00 AM)
Average temperature yesterday: 56 °F

Past Weeks' High & Low Weather Summary

 TemperatureHumidityPressure
High75 °F (Dec 8, 5:00 PM)100% (Dec 8, 6:00 AM)30.27 "Hg (Dec 8, 6:00 AM)
Low45 °F (Dec 11, 5:00 AM)40% (Dec 21, 2:00 PM)29.80 "Hg (Dec 8, 6:00 PM)
Average59 °F69%30.03 "Hg
* Reported Dec 7 10:00 PM — Dec 22 10:00 PM, Talca, Weather by CustomWeather, © 2014

Note: Actual official high and low records may vary slightly from our data, if they occured in-between our weather recording intervals... More about our weather records

Advertising

Talca weather history for previous 24 hours

 ConditionsComfort  
Time TempWeatherWind HumidityBarometerVisibility
10:00 PM
Dec 22
59 °FClear.13 mph55%30.12 "Hg10 mi
9:00 PM63 °FSunny.15 mph52%30.12 "Hg10 mi
8:00 PM64 °FSunny.20 mph49%30.12 "Hg10 mi
7:00 PM66 °FSunny.18 mph46%30.15 "Hg10 mi
6:00 PM68 °FSunny.20 mph46%30.15 "Hg10 mi
5:00 PM68 °FSunny.22 mph46%30.15 "Hg10 mi
4:00 PM70 °FSunny.21 mph43%30.15 "Hg10 mi
3:00 PM68 °FSunny.20 mph46%30.18 "Hg10 mi
2:00 PM68 °FSunny.16 mph43%30.18 "Hg10 mi
1:00 PM66 °FSunny.15 mph40%30.21 "Hg10 mi
12:00 PM64 °FPassing clouds.12 mph46%30.21 "HgN/A
11:00 AM63 °FSunny.14 mph49%30.24 "Hg10 mi
10:00 AM59 °FPassing clouds.7 mph51%30.24 "HgN/A
9:00 AM54 °FSunny.7 mph67%30.24 "Hg10 mi
8:00 AM50 °FSunny.6 mph71%30.27 "Hg6 mi
7:00 AM45 °FSunny.2 mph81%30.24 "Hg10 mi
6:00 AM45 °FClear.3 mph81%30.24 "Hg10 mi
5:00 AM45 °FClear.3 mph87%30.24 "Hg10 mi
4:00 AM48 °FClear.No wind76%30.24 "Hg10 mi
3:00 AM48 °FClear.2 mph76%30.27 "Hg10 mi
2:00 AM50 °FClear.9 mph71%30.27 "Hg10 mi
1:00 AM52 °FClear.8 mph72%30.27 "Hg10 mi
12:00 AM54 °FClear.13 mph63%30.27 "Hg10 mi
11:00 PM
Dec 21
55 °FClear.14 mph55%30.24 "Hg10 mi
Weather by CustomWeather, © 2014

See weather overviewHow to use our weather pages